RH
21 19 20 21 21 23 26 30 32 37 48 60 64 64 64 67 67 64 72 76 66 63 67 69 71 72 70 66 60 62 59 47 37 23 15 10 10 10 11 12 13 14 14 15 16 17 17 17 20
20 21 22 22 24 23 21 25 42 50 52 57 60 66 67 71 68 67 68 70 71 67 70 69 68 74 72 66 66 67 60 47 36 20 11 10 11 12 14 15 15 15 16 17 18 18 18 19 27
20 22 24 23 23 25 23 42 51 48 50 56 61 64 69 76 75 71 73 74 75 73 73 74 71 75 72 73 69 70 59 47 32 19 10 10 12 15 16 16 17 18 18 19 19 19 22 25 29
23 23 23 23 27 27 31 33 44 50 49 56 56 63 69 74 76 75 76 78 75 72 78 80 78 80 76 76 74 71 56 44 28 15 9 11 14 17 17 18 18 19 19 20 22 26 27 28 31
28 26 26 34 31 41 58 55 48 57 64 64 59 58 62 71 76 75 74 73 73 81 88 90 87 87 85 80 78 70 53 33 26 16 10 13 17 18 19 20 20 21 22 23 26 28 29 30 32
32 28 33 36 35 50 56 60 67 67 67 59 53 56 68 71 75 77 83 80 82 91 90 96 95 94 88 84 79 62 40 29 19 15 12 17 18 20 20 22 23 24 25 27 30 30 31 34 38
30 30 36 35 37 46 55 61 66 70 71 65 61 58 68 72 77 80 86 88 84 89 89 94 96 95 85 84 73 44 36 32 27 19 15 17 20 21 23 26 26 25 27 31 33 35 37 44 48
29 29 38 38 35 50 60 64 66 61 65 65 69 73 72 71 74 72 82 92 93 97 97 90 94 88 90 80 47 36 28 17 12 14 20 19 22 25 27 26 27 28 33 45 52 53 50 55 56
29 28 36 40 43 54 55 59 61 59 60 56 64 75 71 75 72 75 85 94 96 97 97 92 91 88 78 56 47 45 40 30 20 15 21 25 29 29 31 37 42 48 51 59 63 64 63 67 63
28 28 32 41 50 51 54 53 54 59 61 62 69 75 74 79 80 78 82 92 99 98 93 92 87 74 62 56 45 35 25 22 21 20 23 29 32 38 44 47 53 57 64 69 71 69 66 67 68
29 30 35 42 46 51 51 48 50 58 60 65 66 77 80 78 81 79 87 90 97 91 84 84 77 68 52 40 32 24 20 19 22 24 27 33 41 43 51 55 61 63 70 72 72 71 69 66 69
32 34 37 46 52 51 48 47 55 59 60 68 72 75 83 83 82 80 83 87 85 80 74 71 62 48 31 22 19 18 18 22 26 28 34 40 45 56 60 60 63 72 73 72 75 73 69 70 64
40 43 46 44 42 45 47 50 53 59 66 66 71 84 87 79 87 93 88 81 74 76 67 56 42 32 24 20 18 19 25 27 32 40 48 56 57 60 65 64 67 71 68 67 70 69 67 65 57
43 45 49 47 45 43 49 51 56 60 54 63 81 81 86 82 78 78 73 79 78 66 54 45 34 31 26 27 33 36 37 41 49 56 59 59 63 61 60 61 63 62 64 69 69 57 49 47 43
52 50 48 47 47 51 56 49 54 59 61 67 82 86 77 64 52 56 54 55 56 49 41 38 33 38 40 42 45 49 55 63 66 58 58 57 54 54 56 57 60 61 61 55 50 47 44 41 38
44 49 51 51 47 60 48 53 46 62 66 64 69 66 55 46 34 34 45 48 40 35 33 38 42 41 43 51 58 62 60 59 57 59 54 50 52 51 54 52 50 48 49 47 47 48 43 40 40
47 48 51 49 51 50 45 43 45 55 59 65 53 47 46 38 33 34 34 35 38 39 36 37 40 47 55 66 64 60 61 63 57 52 47 49 49 48 47 47 49 48 47 49 49 47 42 42 41
56 54 54 53 47 44 40 43 50 46 52 55 55 49 40 34 32 33 36 37 39 46 45 44 49 52 66 66 60 63 62 60 59 53 52 46 46 46 47 49 50 48 49 49 47 45 42 39 37
58 50 49 42 41 44 44 41 46 46 47 55 57 52 43 38 34 34 36 36 43 45 47 49 50 60 70 69 61 58 60 62 57 51 46 45 47 47 48 49 49 48 49 49 45 43 41 39 40
54 56 48 40 38 44 47 44 44 45 49 45 47 46 40 39 40 38 39 40 40 41 46 51 63 63 60 59 58 62 65 58 52 50 46 47 48 48 47 49 50 52 52 51 52 50 45 43 41
51 52 48 42 39 41 46 43 43 44 46 52 47 43 45 41 46 43 45 43 43 45 47 51 54 57 59 61 63 64 55 49 50 46 45 43 44 45 48 50 51 53 55 57 53 46 43 42 43
51 45 46 44 39 35 38 45 46 43 51 55 52 47 44 45 45 46 46 46 47 49 51 54 62 65 61 62 63 52 46 47 42 42 43 46 49 50 50 52 55 57 59 55 48 47 46 47 46
47 50 46 45 46 41 36 40 40 43 45 46 49 47 45 41 44 49 51 52 54 53 54 65 67 61 60 60 54 54 48 42 42 44 47 51 52 52 52 55 58 62 64 54 47 46 51 50 43
42 47 49 47 49 48 47 46 43 49 42 39 44 44 41 41 46 52 52 55 56 55 60 60 56 56 57 53 53 48 42 42 45 49 53 55 58 62 63 64 71 71 63 53 47 51 50 42 40
41 45 53 54 61 53 45 51 43 42 37 34 37 40 41 43 44 47 50 63 55 54 54 49 52 55 50 50 48 47 46 48 53 56 58 64 65 63 58 71 87 73 58 47 48 47 44 41 43
47 48 52 53 58 50 55 46 46 39 40 36 38 40 37 42 45 48 51 53 53 52 47 46 49 50 48 48 50 51 53 55 60 60 72 73 71 72 71 79 69 59 47 47 49 49 46 47 48
49 50 48 54 53 53 51 41 38 35 34 33 40 31 34 38 43 45 44 46 48 46 45 45 48 48 49 51 53 55 59 63 64 66 64 69 90 82 68 67 63 51 46 52 53 52 52 53 53
43 43 48 54 51 47 40 38 44 36 41 45 39 37 35 36 38 38 38 41 39 38 40 42 47 51 53 55 57 60 67 67 74 72 64 70 73 79 62 60 55 49 57 61 58 53 56 57 54
47 37 40 42 48 47 49 38 35 38 47 44 42 36 36 36 32 32 33 34 35 38 41 44 45 48 50 53 58 67 77 75 94 87 80 67 64 63 64 60 55 62 66 68 60 61 61 56 56
50 37 42 54 48 53 50 39 30 34 35 43 43 40 41 38 36 33 31 36 38 38 41 42 46 51 55 61 73 78 80 80 96 77 70 77 60 60 60 61 62 68 72 66 61 63 63 60 57